Dewpoint
72 68 67 69 70 74 72 70 59 62 61 55 54 57 54 61 60 60 57 56 56 58 56 55 55 57 57 54 53 53 53 57 58 47 57 65 67 65 66 69 70 70 70 72 73 74 74 75 76 75 76 76 75 76 75 75 75 75 75 74 74 74 74 73 73 74 75 75 75 75 75 75 75 74 74 74 74 74 74 74 75 74 74 75 75 75 75 76 76 76 76 76 76 75 75 75 75
68 68 70 73 74 75 67 69 61 57 59 56 56 58 58 61 61 59 60 60 56 56 55 55 53 52 50 50 50 51 53 56 60 62 63 64 63 63 67 68 69 69 70 71 72 72 73 74 76 76 76 75 75 76 77 76 75 75 75 74 74 74 74 73 73 73 73 74 74 74 74 73 74 73 73 73 73 73 73 74 74 74 74 74 75 75 75 76 76 75 76 77 76 76 76 76 75
70 73 77 74 73 72 69 68 56 57 54 53 56 59 62 60 59 61 61 59 58 57 55 54 52 50 51 53 52 55 52 56 58 59 61 62 61 64 66 66 68 69 69 69 70 71 73 74 76 76 76 76 76 77 77 76 75 75 75 75 75 74 74 74 73 73 74 74 73 73 73 73 73 73 73 73 73 73 73 73 73 74 74 74 74 74 73 73 74 74 74 74 77 77 76 76 75
72 74 73 73 68 71 64 63 58 55 54 55 57 59 61 60 60 64 60 56 56 54 53 53 55 55 54 50 49 48 52 55 57 58 60 61 62 64 64 65 70 68 67 68 70 71 73 75 76 76 76 76 76 77 76 76 75 75 75 75 74 75 74 74 74 75 74 74 74 74 74 74 74 74 73 73 73 74 74 74 74 74 74 74 74 74 73 73 73 74 74 74 75 77 77 77 76
73 76 76 72 69 64 63 62 60 58 53 54 54 60 61 63 58 56 57 57 55 55 54 54 54 57 57 53 55 53 53 55 56 57 57 59 61 62 64 66 66 65 66 69 71 71 73 76 76 76 76 76 76 76 76 76 75 76 76 76 75 75 75 74 74 74 74 74 75 75 75 75 75 74 75 75 74 74 74 74 74 74 74 74 74 73 73 73 73 74 73 74 74 75 77 77 77
73 74 76 74 67 71 64 58 56 58 59 58 58 59 62 58 57 57 55 55 56 55 54 54 54 53 49 46 51 49 54 54 53 54 55 57 60 61 64 65 63 62 65 70 72 72 74 76 76 76 76 76 76 76 76 76 76 75 75 76 75 75 74 74 74 75 75 75 75 75 75 75 76 76 75 74 74 74 74 74 74 74 74 74 74 74 74 74 74 75 75 75 76 75 76 76 78
72 72 72 71 71 70 59 59 58 58 59 62 59 60 60 59 58 57 56 55 55 55 56 54 54 52 52 51 50 48 50 51 52 52 54 57 59 61 62 62 61 62 68 72 72 73 75 76 76 76 76 76 76 76 75 75 75 75 76 75 75 75 74 75 75 74 75 74 75 76 76 76 76 74 74 74 74 75 74 74 73 74 73 73 73 74 74 75 75 75 76 76 77 77 77 76 77
77 70 68 66 63 63 60 60 59 60 60 61 61 62 63 60 60 58 57 53 53 56 56 58 57 55 54 54 51 51 49 51 51 53 56 57 59 60 61 62 62 65 69 72 73 74 77 76 76 76 76 76 75 75 75 75 75 76 76 75 75 74 75 74 74 74 75 75 75 76 76 75 74 74 75 74 74 74 73 73 73 74 73 73 73 74 74 75 75 76 77 77 77 77 77 77 77
74 72 70 65 61 60 59 59 60 62 62 63 63 63 63 61 60 58 57 56 56 54 54 55 56 55 52 54 50 48 50 49 51 58 56 57 58 58 61 63 63 66 70 72 73 75 75 76 76 76 76 76 75 75 75 75 75 75 75 74 74 75 74 74 74 74 75 75 74 75 74 75 75 74 74 74 74 73 73 74 74 74 74 74 73 74 75 76 76 77 77 78 78 78 78 78 78
72 70 62 62 61 55 59 58 58 60 61 64 62 62 61 60 59 59 57 56 55 55 55 57 57 56 55 55 53 48 48 50 51 52 55 56 55 58 62 63 63 66 71 72 72 73 74 76 76 76 76 75 75 74 75 75 75 75 74 74 75 74 74 74 74 74 74 74 75 74 74 75 75 75 74 74 74 74 74 74 74 74 74 74 75 75 76 77 78 78 79 79 79 79 79 79 79
63 69 68 59 57 56 56 56 59 62 61 63 64 62 61 58 57 56 56 57 58 57 55 56 57 56 57 58 55 51 51 51 49 51 53 53 55 58 61 62 62 68 71 70 71 73 74 74 76 75 76 75 75 74 75 75 74 75 75 75 75 74 74 74 74 74 74 74 74 74 74 74 75 75 75 74 74 74 75 75 75 75 75 75 76 76 77 77 78 77 77 78 77 78 79 80 80
63 64 65 59 59 58 56 56 58 59 60 62 62 62 63 63 60 58 55 55 55 53 55 58 57 58 58 56 55 53 49 48 47 50 52 51 53 58 61 61 61 69 69 70 72 73 72 74 74 76 75 75 75 74 75 75 74 75 74 74 74 74 74 74 74 74 75 74 74 74 74 74 74 74 74 74 75 75 75 75 75 76 76 76 76 77 77 77 77 77 77 77 78 78 78 79 79
65 66 60 55 58 62 57 57 57 57 60 62 62 65 61 59 57 54 56 55 58 55 58 61 59 61 57 58 56 55 49 46 46 48 50 49 54 58 60 59 61 68 68 71 71 72 73 72 73 75 75 75 75 74 75 75 74 75 74 74 74 74 74 74 74 75 74 74 74 74 74 74 75 75 75 75 75 75 76 76 76 77 77 77 77 77 77 77 77 77 77 78 78 79 78 79 79
66 67 67 58 65 57 56 55 57 54 55 60 62 64 65 62 62 60 57 54 58 58 59 60 62 63 63 57 56 56 50 47 45 48 49 48 54 56 58 57 62 67 68 69 70 72 72 72 72 74 74 74 74 74 75 75 74 75 74 74 74 74 74 75 74 74 74 75 74 74 74 75 75 75 76 75 75 75 76 76 76 77 77 77 77 77 77 77 77 77 77 78 78 79 79 79 79
65 68 67 60 60 55 58 54 56 55 55 60 62 64 64 62 60 57 65 63 59 61 61 63 62 58 58 58 56 57 52 46 45 47 47 48 53 56 56 56 62 65 66 67 70 70 70 70 71 74 75 74 74 74 75 74 75 75 74 74 74 74 74 75 74 74 74 74 74 75 75 75 76 76 76 76 76 76 76 76 77 78 78 77 78 77 77 77 77 77 77 78 78 79 80 80 79
66 66 64 60 54 57 55 56 57 56 54 60 61 64 64 61 66 64 66 65 64 62 60 60 60 61 63 60 60 56 53 48 45 47 45 48 54 55 55 57 60 62 64 66 68 69 70 70 72 73 74 74 73 74 75 75 75 75 75 74 74 75 74 74 75 75 74 74 74 74 75 75 75 75 77 76 76 77 77 76 77 78 77 77 77 77 77 77 77 78 78 77 78 79 79 80 80
67 66 57 56 53 57 56 58 59 54 58 59 61 63 62 60 66 67 66 66 66 62 64 66 61 60 64 62 61 55 53 50 50 46 44 48 54 55 56 57 59 60 62 65 66 67 68 68 71 72 73 73 72 74 75 75 75 75 75 75 74 75 75 75 75 75 75 75 75 75 75 73 76 77 77 77 77 77 76 78 78 77 77 77 77 77 77 77 77 78 78 78 78 79 80 80 80
66 58 55 53 54 56 59 59 59 60 59 57 58 61 62 61 61 62 61 62 64 64 65 66 64 65 65 62 62 58 54 52 48 45 42 47 52 55 54 56 58 58 61 63 64 64 65 67 71 71 72 73 72 74 76 76 75 75 75 75 75 75 75 75 75 75 75 75 76 76 76 75 77 78 77 73 75 76 76 77 77 77 77 77 77 77 78 78 78 78 78 79 79 79 80 76 76
64 55 54 52 55 55 61 62 62 61 58 58 59 61 62 63 65 65 62 62 62 64 66 65 64 63 63 64 62 61 58 54 51 44 42 46 51 54 53 58 59 57 58 61 63 61 64 66 69 68 70 72 71 74 74 76 76 76 75 75 75 75 75 75 75 75 76 77 78 77 77 76 76 80 80 75 73 70 71 77 77 76 76 77 78 78 79 79 78 78 79 80 80 81 78 74 76
62 57 55 57 57 59 64 65 63 64 63 61 58 62 65 66 65 68 64 63 64 64 65 65 64 64 62 61 60 61 60 57 55 48 43 45 51 54 52 56 57 58 57 59 61 61 63 65 67 68 67 71 73 73 74 76 77 77 75 76 76 75 76 76 76 78 78 78 76 78 76 75 73 77 73 72 71 74 75 75 77 78 78 78 78 79 79 80 80 80 80 80 80 76 74 76 71
49 49 53 56 57 59 63 64 64 64 64 63 63 60 62 61 65 64 63 61 64 66 65 64 65 65 66 61 60 60 60 59 57 51 45 47 50 54 51 56 57 57 56 58 61 61 62 64 64 67 68 71 71 72 71 73 76 74 74 75 75 76 76 76 76 77 77 78 77 77 73 72 71 74 76 76 75 76 76 75 76 77 78 78 78 78 78 72 80 75 75 78 74 71 69 72 70
47 46 49 56 58 55 62 65 67 64 65 63 62 59 61 64 66 64 64 61 60 64 65 64 66 68 66 66 59 60 59 59 58 53 50 50 51 54 52 56 57 58 57 58 59 62 61 62 63 65 67 69 71 71 69 71 74 72 71 73 73 74 75 74 76 75 75 77 77 73 73 71 73 72 75 77 74 77 73 72 75 77 77 74 77 77 73 75 75 72 69 70 70 70 71 70 68
41 46 49 53 55 56 60 64 66 65 64 63 60 63 61 61 62 63 63 61 62 65 65 66 68 68 69 67 66 59 59 60 58 55 53 53 53 55 51 55 56 57 57 58 59 61 61 61 63 64 66 67 69 71 70 70 72 73 71 71 71 72 72 73 72 73 75 77 76 74 71 68 68 67 70 73 73 72 71 72 75 77 75 73 73 73 72 74 71 73 69 70 66 66 66 69 73
42 41 48 55 57 57 58 59 64 60 57 59 61 60 62 61 58 62 60 63 63 63 63 66 67 68 69 68 66 67 59 59 58 57 55 56 54 54 52 53 54 58 59 57 58 58 62 60 61 61 64 65 70 69 68 68 72 70 69 74 74 73 72 71 70 70 75 77 77 74 72 68 64 66 71 73 72 69 70 73 74 71 70 72 71 72 69 73 72 69 71 67 64 58 66 65 66
40 44 51 56 56 58 59 57 57 59 59 59 60 59 62 60 60 58 62 62 61 60 62 64 69 69 70 69 68 70 65 59 58 58 58 58 56 54 51 52 54 57 56 56 57 56 59 60 59 58 62 65 67 66 65 67 71 73 72 70 71 72 75 73 70 72 70 71 74 75 74 68 64 63 68 68 72 69 74 73 74 71 75 74 74 70 72 71 69 68 70 68 70 68 62 66 71
29 38 46 51 53 57 54 58 61 59 59 62 62 59 58 60 59 56 62 63 62 59 63 64 67 65 69 69 66 69 67 68 60 58 58 59 58 54 51 50 51 53 54 54 56 56 58 59 58 57 60 64 67 64 68 68 72 73 71 73 75 75 73 73 74 68 70 68 68 73 69 68 65 61 64 70 67 68 73 74 74 73 72 75 70 69 72 73 71 72 72 68 65 66 66 66 69
27 37 41 49 52 57 60 59 59 61 61 62 62 61 58 57 56 57 59 60 62 58 63 61 64 66 66 68 69 71 69 67 70 59 59 59 59 56 51 49 50 51 54 53 54 56 58 57 58 60 58 69 66 64 66 68 72 73 72 70 70 72 73 75 73 69 67 65 66 75 74 74 68 62 62 66 66 68 70 69 68 71 71 69 71 68 73 69 71 70 66 67 71 71 68 65 68
30 33 43 51 54 57 59 60 62 60 58 59 59 58 61 58 57 56 58 57 56 56 61 63 61 63 65 67 69 70 69 63 67 63 59 58 58 56 52 50 49 50 52 53 54 57 54 54 56 58 57 63 69 64 68 66 70 71 73 70 67 68 74 72 71 69 70 67 68 76 74 73 73 70 67 64 65 71 69 65 64 71 69 67 74 69 70 75 76 73 67 68 71 72 69 68 67
28 33 47 53 56 55 59 59 61 61 57 61 63 60 59 58 55 56 56 58 56 59 61 64 62 62 62 62 61 62 68 70 63 68 59 59 58 56 54 51 50 51 52 54 55 55 53 52 53 57 57 65 67 64 63 63 64 65 70 70 69 65 71 72 68 66 69 69 71 73 77 75 78 73 72 71 71 69 65 64 62 64 68 72 67 67 67 75 72 70 71 70 73 71 68 65 61
26 38 40 45 51 54 55 61 60 59 59 63 62 47 51 54 53 53 53 57 57 60 57 62 63 63 60 61 62 62 62 62 61 61 60 59 59 57 56 53 53 53 51 55 54 54 54 53 52 54 58 59 63 61 65 64 65 67 69 69 71 70 67 69 69 68 68 69 73 74 70 75 76 75 74 71 70 66 68 68 65 63 67 71 73 73 72 73 72 72 69 69 70 73 66 65 62
24 35 33 38 39 49 58 57 57 57 59 63 58 50 48 54 54 55 53 56 55 58 57 59 64 63 61 61 61 63 64 60 59 58 59 60 58 57 56 56 55 54 52 52 54 54 54 54 52 51 58 57 64 64 65 66 66 64 67 68 66 68 68 66 66 67 66 64 64 64 72 73 75 75 76 74 69 67 63 62 63 63 66 68 67 75 72 72 74 72 71 68 67 71 65 66 62
27 26 27 32 42 51 55 54 56 56 60 59 56 47 44 48 52 56 52 57 56 57 56 58 59 62 62 62 61 62 62 62 59 59 59 58 57 57 56 56 55 54 51 52 54 54 53 52 54 51 54 57 63 68 67 68 65 67 69 68 65 69 65 65 63 60 60 63 62 64 71 74 74 76 76 76 71 68 64 63 61 63 67 69 72 75 76 75 73 68 68 67 68 63 68 65 68
25 20 30 21 34 46 49 54 47 56 57 56 48 46 50 49 50 50 52 55 55 56 58 57 62 64 62 62 63 62 63 62 64 61 58 59 58 55 55 55 56 54 51 51 53 53 52 51 54 52 51 54 59 63 67 69 68 66 68 64 61 65 61 63 64 63 62 62 63 58 74 72 74 76 77 78 76 72 69 65 60 60 65 68 68 70 70 71 70 68 77 73 70 74 65 62 62
27 18 20 20 39 38 42 46 47 46 49 47 47 46 43 46 48 48 51 53 53 53 59 58 60 59 63 62 63 63 65 63 64 64 63 59 58 59 54 57 54 54 53 51 52 51 50 51 51 52 53 53 59 65 68 67 66 69 68 65 69 62 60 59 59 60 63 60 62 63 69 75 75 76 78 77 77 73 73 70 63 60 64 66 71 71 74 70 70 68 70 73 72 72 71 65 63
18 21 20 18 17 27 42 40 39 42 43 42 42 42 45 48 46 46 47 49 52 54 56 58 57 60 63 62 64 64 63 64 63 65 65 64 65 61 59 58 56 54 51 50 51 52 51 53 55 63 56 56 58 63 71 69 68 70 66 65 63 64 64 58 58 59 59 60 59 68 74 71 73 77 78 78 76 74 73 73 70 68 68 71 71 72 71 71 73 71 68 70 74 72 73 69 67
14 13 14 16 17 24 25 25 30 35 36 41 38 43 42 46 47 45 42 49 49 53 58 61 61 60 64 63 64 63 64 63 65 67 67 66 66 65 65 68 69 71 70 68 67 63 68 54 54 65 62 55 58 65 66 63 65 67 66 67 66 65 62 60 59 56 57 60 59 70 75 76 77 77 78 77 77 75 73 73 70 66 69 69 72 68 67 70 70 70 70 67 72 71 71 70 68
14 8 12 15 12 15 24 26 32 27 31 35 39 40 38 43 46 46 45 44 49 52 53 58 59 59 63 59 64 64 66 66 66 67 67 66 67 66 68 69 68 66 65 65 64 66 64 67 65 61 63 64 61 62 63 62 61 66 67 63 64 64 63 60 56 59 60 61 65 68 78 80 76 75 75 75 76 76 75 74 72 69 67 69 69 68 66 66 71 71 73 78 70 71 68 66 66
12 10 10 12 10 21 23 25 28 34 30 42 36 30 40 40 40 45 48 45 47 50 52 54 57 58 61 60 59 65 66 67 66 65 66 66 66 66 69 68 68 61 61 60 64 66 69 66 70 72 69 68 68 65 64 62 69 64 62 63 62 61 63 64 65 67 64 64 73 76 77 75 76 75 76 77 77 76 75 73 72 70 70 70 71 73 71 75 75 71 69 71 70 68 68 66 64
10 12 14 13 16 13 18 26 32 33 34 40 39 35 38 40 40 40 43 43 49 50 52 57 58 58 60 60 58 63 62 63 63 64 65 65 66 69 68 67 67 65 63 62 63 64 67 68 74 75 72 71 69 70 77 76 74 74 74 72 72 68 70 75 74 73 72 72 73 75 78 78 77 76 75 76 75 74 74 73 72 69 70 71 74 74 74 74 75 71 73 69 68 67 67 66 67
10 10 14 13 13 9 27 32 31 39 30 35 38 29 41 42 42 41 43 42 49 46 49 51 55 56 59 57 63 62 60 62 60 60 61 63 64 68 68 68 68 66 65 64 63 63 64 71 72 74 73 72 75 80 77 75 74 75 76 75 75 76 76 78 76 74 73 74 75 73 76 76 75 74 74 73 73 73 74 74 71 70 71 72 73 75 73 70 73 73 69 68 69 67 66 64 65
10 11 6 10 11 13 12 27 25 32 24 30 29 35 41 43 38 44 48 51 49 50 45 50 56 54 54 61 58 60 61 59 59 58 58 59 63 66 67 69 68 68 66 65 64 64 65 64 69 74 74 74 76 77 76 75 75 75 76 74 74 74 74 75 75 74 73 77 76 73 71 74 75 74 74 73 73 74 74 74 73 71 70 71 68 69 72 69 70 69 70 71 70 67 66 66 66
11 11 10 10 11 12 11 12 12 18 23 27 28 29 37 42 42 44 50 47 51 48 46 49 53 53 53 53 62 61 58 59 60 63 65 66 65 63 66 66 67 66 67 66 66 66 66 66 68 72 74 74 73 77 76 76 76 75 74 73 73 73 73 74 74 73 74 75 74 74 73 72 74 74 74 74 72 72 72 73 73 71 69 69 69 66 68 69 71 69 68 70 68 69 69 68 66
10 12 14 11 9 10 9 6 10 17 25 33 31 24 34 37 40 47 49 46 46 47 47 49 51 55 49 52 57 58 57 55 62 65 66 65 67 67 64 65 66 64 65 67 67 67 66 67 70 72 72 73 72 75 77 78 77 75 73 72 72 72 73 73 74 74 73 76 75 75 74 72 72 72 72 73 74 74 73 73 73 73 70 69 68 69 69 67 68 67 67 69 69 70 72 71 68
15 17 17 15 13 12 11 12 12 19 18 32 29 24 22 35 36 45 46 47 47 47 48 52 50 50 45 50 49 52 53 54 64 63 65 64 65 67 65 62 61 61 64 63 64 63 65 69 69 71 74 75 74 74 76 78 77 75 74 72 72 72 71 72 72 73 73 74 74 74 73 74 71 71 71 72 73 73 73 71 72 72 70 68 67 65 66 68 69 66 69 69 70 73 72 70 69
13 16 16 15 13 13 12 11 11 13 15 19 20 20 24 25 41 43 45 46 46 45 48 51 55 56 55 52 52 52 55 59 55 63 64 66 65 64 63 66 70 69 67 67 69 69 68 66 69 70 73 76 76 75 76 76 77 76 74 73 73 73 72 73 75 76 76 74 73 74 72 71 70 74 75 75 75 74 73 71 71 71 70 70 69 66 65 67 69 70 73 76 73 72 71 69 71
12 13 13 12 8 8 10 10 12 20 21 24 21 15 22 31 40 42 45 46 46 48 49 49 53 55 55 59 60 57 57 55 57 65 65 67 68 65 65 67 69 68 68 68 68 70 69 68 68 70 73 76 76 77 77 76 76 77 75 75 74 74 74 74 74 75 75 75 74 73 74 75 73 80 78 75 74 74 73 73 70 68 69 68 70 67 65 67 71 71 72 70 71 71 71 69 70
13 12 9 9 10 12 14 18 25 23 19 21 17 17 16 27 40 39 42 42 44 49 51 50 52 57 56 58 59 57 54 54 55 60 64 63 61 60 61 65 64 65 66 66 68 69 69 70 69 70 74 74 75 75 75 75 74 74 75 75 75 74 75 74 75 74 75 74 74 74 74 74 75 76 78 77 73 72 72 73 70 68 67 69 71 69 68 65 67 69 69 70 73 73 71 71 69
14 11 10 11 17 17 24 23 29 23 21 23 19 15 14 19 44 44 41 41 43 45 47 49 50 56 56 56 53 53 52 51 53 56 57 59 62 62 59 59 64 65 67 65 66 68 68 68 67 72 74 75 74 73 74 74 73 73 74 75 75 75 76 74 74 74 74 74 73 74 74 73 73 74 75 75 76 73 73 72 72 70 70 68 68 69 68 66 67 68 68 70 71 72 73 72 70
15 15 17 11 20 24 28 25 23 23 24 25 19 16 22 23 40 38 39 41 43 42 43 48 49 50 51 51 55 56 52 52 57 57 57 55 57 58 55 57 59 61 60 59 57 57 59 63 65 69 73 75 75 73 73 74 74 73 74 74 75 76 75 75 74 74 75 74 74 73 74 75 75 75 73 72 73 73 72 73 72 70 70 69 69 69 69 70 70 67 67 69 69 71 72 71 71
14 14 16 18 20 20 23 24 23 23 20 18 18 24 22 21 38 42 42 43 43 44 45 45 48 51 51 51 51 49 52 58 54 55 55 55 56 55 56 57 59 59 56 56 56 61 63 62 67 66 69 74 77 76 74 74 73 74 74 74 74 75 76 75 75 73 73 73 73 72 71 72 73 72 71 72 72 72 73 73 73 74 75 75 75 74 72 71 71 70 69 69 68 70 72 72 72
16 13 14 18 21 13 19 20 19 19 22 17 18 21 26 22 44 43 43 43 44 45 47 51 51 51 51 50 48 49 50 52 53 56 56 59 56 57 56 56 58 57 57 57 58 63 65 64 67 69 70 72 74 74 74 74 73 74 73 72 72 74 74 75 74 74 73 74 73 73 73 72 71 72 71 72 73 71 72 73 76 74 74 74 73 73 71 70 74 73 71 71 70 70 72 71 70
15 13 14 11 14 18 12 15 14 14 15 14 17 14 36 35 44 43 43 42 44 46 50 52 52 50 48 46 48 48 47 48 50 53 54 56 57 57 57 58 56 56 59 57 56 58 58 64 66 67 70 70 72 74 73 71 71 69 71 74 73 73 75 75 75 75 74 73 73 72 72 72 72 72 73 73 73 72 71 75 76 73 73 72 73 73 72 70 72 72 72 71 71 68 71 71 71
13 13 10 10 13 14 18 16 12 12 12 16 14 13 38 41 40 40 42 45 46 47 47 46 47 46 46 47 47 47 46 48 50 50 55 56 55 57 57 58 56 56 56 57 60 57 62 63 64 67 70 70 71 74 70 71 71 70 70 68 68 69 73 73 73 75 75 74 74 73 72 73 72 73 72 73 72 72 72 72 72 71 72 73 72 72 71 71 73 73 72 74 72 69 71 72 71
16 13 8 12 11 12 17 11 16 12 11 16 11 14 35 38 38 38 40 41 41 42 43 44 44 45 45 46 48 56 52 52 54 54 56 57 57 58 57 56 56 56 57 57 59 58 62 66 68 67 68 70 71 72 71 68 69 68 69 68 67 67 65 69 73 74 75 74 74 74 73 73 72 72 72 71 71 71 72 73 72 73 71 72 71 71 71 71 73 72 72 74 73 73 72 72 70
14 13 11 12 15 14 15 11 13 16 16 21 16 16 22 38 41 38 40 39 41 42 43 44 44 45 44 45 51 55 56 56 57 55 54 55 55 56 60 56 55 56 58 56 56 61 65 63 67 69 70 70 71 72 71 72 71 69 68 67 65 64 65 69 73 75 77 75 73 73 73 73 72 72 73 73 73 71 72 73 74 72 72 72 71 70 72 73 73 73 72 72 72 74 74 73 72
14 13 13 12 12 10 14 10 15 18 13 12 16 10 35 35 34 35 37 39 41 40 41 43 44 44 43 47 49 53 57 58 56 54 53 53 53 55 55 56 55 57 57 56 56 59 59 65 68 69 69 71 72 72 72 72 72 71 69 69 69 71 73 74 78 77 77 74 73 73 73 72 71 71 72 72 72 70 70 71 71 72 70 70 69 70 70 72 73 73 72 70 71 75 74 73 72
14 15 14 12 11 10 13 12 14 11 14 14 14 11 33 41 39 37 40 41 40 42 42 46 45 44 45 52 54 58 59 57 57 55 55 52 54 54 54 54 57 58 57 59 60 61 60 65 68 69 67 69 70 71 72 72 73 73 73 71 72 73 74 75 75 78 77 74 73 72 72 72 71 70 72 72 71 71 71 70 70 71 70 70 71 70 69 72 74 74 74 73 72 74 74 72 73
15 14 14 11 10 12 15 18 12 14 17 22 17 19 40 38 40 45 46 47 44 44 46 45 45 45 56 57 58 60 60 59 57 54 51 54 57 55 55 56 59 59 59 61 62 63 63 67 67 69 70 70 70 71 72 73 73 73 73 73 74 75 75 76 76 75 76 74 72 72 72 72 71 73 72 71 71 70 70 70 69 70 71 70 72 73 71 71 73 74 73 71 71 73 75 74 74